FENGYUN 1C DEB

Satellite information

Favourite Embed

Satellite Type and Status

DEBRISIN ORBIT

Key statistics

Satellite FENGYUN 1C DEB at a glance.

Uptime

9500

Days in orbit

Revolutions

≈ 14.6

Per day

Orbit

SSO

Sun Synchronous Orbit

Inclination

98.9

Latest

Satellite identification and parameters

Extended collection of information and parameters for FENGYUN 1C DEB.

Object identification

Identified? True

Debris? True

Object name: FENGYUN 1C DEB

International designator: 1999-025JG

Object number (NORAD): 29934

Object ID (CCSDS): 29934

Country: PEOPLES REPUBLIC OF CHINA (PRC)

Current information (Y/N): Y

RCS size: MEDIUM

Orbital parameters

Period: 98.507 minutes

Inclination: 98.9232 deg

SMA: 7065.429 km

Apoapsis: 761.241 km

Periapsis: 613.346 km

RAAN: 162.3536 deg

Eccentricy: 0.0104661

Argument of periapsis: 189.2628 deg

Mean anomaly: 170.6642 deg

Mean motion: 14.61823615 rev/day

Mean motion (dot): 0.00003816 rev/day2

B* drag term: 0.00071758 1/REarth

Two-line elements (TLE)

Creation date: May 12, 2025, 7:41 p.m.

Reference frame: TEME

Reference center: EARTH

Epoch: May 12, 2025, 1:17 p.m. UTC

TLE line 0: 0 FENGYUN 1C DEB

TLE line 1: 1 29934U 99025JG 25132.55356630 .00003816 00000-0 71758-3 0 9997

TLE line 2: 2 29934 98.9232 162.3536 0104661 189.2628 170.6642 14.61823615966411

Live tracking on map

Real-time ground track for satellite FENGYUN 1C DEB.

In-orbit conjunctions

A list of the most updated potential collisions computed for object FENGYUN 1C DEB.

Target Orbit TCA Probability of collision Miss distance Type
SL-14 R/B LEO 2025-03-01 01:25:25 0.0001558394 951.0 (m) ROCKET BODY
FUSE 1 LEO 2024-12-15 01:44:47 0.000103741 889.0 (m) PAYLOAD

Associated space launch

Chinese polar orbiting meteorological satellite

FENGYUN 1C DEB was lifted into orbit during the mission ‘Long March 4B | Feng Yun 1C’, on board a Long March 4B space rocket.

The launch took place on May 10, 1999, 1:33 a.m. from Launch Complex 7.

For more information about the launch, click the button.

Launch to space Long March 4B | Feng Yun 1C
Long March 4B | Feng Yun 1C

Agency: N/A

Status: Launch Successful

Launch date: May 10, 1999, 1:33 a.m. UTC

Rocket: Long March 4B

Launch pad: Launch Complex 7

Location: Taiyuan Satellite Launch Center, People's Republic of China

...

Latest news about this satellite

There are no fresh news available about this satellite. Check back as we update our databases every day.


Newsletter sign-up

Weekly statistics, charts and insights to help you stay on top of the space industry.